contact:dominique.lefevre@mio.osupytheas.fr, maurice.libes@osupytheas.fr, didier.mallarino@osupytheas.fr
Project:EMSO http://www.emso-fr.org/EMSO-France
Depth: 2436.0 m
Title:EMSO Ligure Ouest : Data MII capteur MICROCAT
DateTime_Computer,Latitude,Longitude,Temperature,Conductivity,Pressure,DateTime_Instrument
DateTime_Computer,Latitude,Longitude,degC,S m-1,dbar,DateTime_Instrument
2021-07-09T00:02:09Z,42.805,6.029,13.2989,4.60003,2470.413,2021-7-09T02:03:24Z
2021-07-09T00:05:12Z,42.805,6.029,13.2985,4.60004,2470.45,2021-7-09T02:06:27Z
2021-07-09T00:08:15Z,42.805,6.029,13.2991,4.60001,2470.45,2021-7-09T02:09:31Z
2021-07-09T00:11:18Z,42.805,6.029,13.2991,4.60026,2470.427,2021-7-09T02:12:34Z
2021-07-09T00:14:21Z,42.805,6.029,13.2991,4.60009,2470.413,2021-7-09T02:15:37Z
2021-07-09T00:17:24Z,42.805,6.029,13.2993,4.60011,2470.474,2021-7-09T02:18:40Z
2021-07-09T00:20:28Z,42.805,6.029,13.2988,4.60006,2470.437,2021-7-09T02:21:43Z
2021-07-09T00:23:31Z,42.805,6.029,13.2993,4.60009,2470.437,2021-7-09T02:24:46Z
2021-07-09T00:26:34Z,42.805,6.029,13.2993,4.60001,2470.427,2021-7-09T02:27:49Z
2021-07-09T00:29:37Z,42.805,6.029,13.2990,4.60005,2470.437,2021-7-09T02:30:52Z
2021-07-09T00:32:40Z,42.805,6.029,13.2990,4.60011,2470.437,2021-7-09T02:33:56Z
2021-07-09T00:35:43Z,42.805,6.029,13.2989,4.60009,2470.427,2021-7-09T02:36:59Z
2021-07-09T00:38:46Z,42.805,6.029,13.2995,4.60011,2470.437,2021-7-09T02:40:02Z
2021-07-09T00:41:49Z,42.805,6.029,13.2990,4.60013,2470.46,2021-7-09T02:43:05Z
2021-07-09T00:44:53Z,42.805,6.029,13.2989,4.60019,2470.437,2021-7-09T02:46:08Z
2021-07-09T00:47:56Z,42.805,6.029,13.2991,4.60006,2470.437,2021-7-09T02:49:11Z
2021-07-09T00:50:59Z,42.805,6.029,13.2991,4.60007,2470.404,2021-7-09T02:52:14Z
2021-07-09T00:54:02Z,42.805,6.029,13.2991,4.60011,2470.413,2021-7-09T02:55:17Z
2021-07-09T00:57:05Z,42.805,6.029,13.2992,4.60013,2470.437,2021-7-09T02:58:20Z
2021-07-09T01:00:08Z,42.805,6.029,13.2990,4.60011,2470.437,2021-7-09T03:01:24Z
2021-07-09T01:03:11Z,42.805,6.029,13.2990,4.60008,2470.39,2021-7-09T03:04:27Z
2021-07-09T01:06:14Z,42.805,6.029,13.2994,4.60007,2470.413,2021-7-09T03:07:30Z
2021-07-09T01:09:17Z,42.805,6.029,13.2990,4.60013,2470.437,2021-7-09T03:10:33Z
2021-07-09T01:12:21Z,42.805,6.029,13.2991,4.60011,2470.437,2021-7-09T03:13:36Z
2021-07-09T01:15:24Z,42.805,6.029,13.2991,4.60009,2470.413,2021-7-09T03:16:39Z
2021-07-09T01:18:27Z,42.805,6.029,13.2991,4.60006,2470.404,2021-7-09T03:19:42Z
2021-07-09T01:21:30Z,42.805,6.029,13.2992,4.60006,2470.474,2021-7-09T03:22:45Z
2021-07-09T01:24:33Z,42.805,6.029,13.2989,4.60009,2470.413,2021-7-09T03:25:49Z
2021-07-09T01:27:36Z,42.805,6.029,13.2995,4.60009,2470.39,2021-7-09T03:28:52Z
2021-07-09T01:30:39Z,42.805,6.029,13.2990,4.60005,2470.39,2021-7-09T03:31:55Z
2021-07-09T01:33:42Z,42.805,6.029,13.2991,4.60008,2470.427,2021-7-09T03:34:58Z
2021-07-09T01:36:46Z,42.805,6.029,13.2990,4.60009,2470.413,2021-7-09T03:38:01Z
2021-07-09T01:39:49Z,42.805,6.029,13.2991,4.60009,2470.39,2021-7-09T03:41:04Z
2021-07-09T01:42:52Z,42.805,6.029,13.2990,4.60011,2470.427,2021-7-09T03:44:07Z
2021-07-09T01:45:55Z,42.805,6.029,13.2992,4.60009,2470.366,2021-7-09T03:47:10Z
2021-07-09T01:48:58Z,42.805,6.029,13.2996,4.60010,2470.39,2021-7-09T03:50:13Z
2021-07-09T01:52:01Z,42.805,6.029,13.2990,4.60003,2470.413,2021-7-09T03:53:17Z
2021-07-09T01:55:04Z,42.805,6.029,13.2986,4.60005,2470.404,2021-7-09T03:56:20Z
2021-07-09T01:58:07Z,42.805,6.029,13.2992,4.60005,2470.404,2021-7-09T03:59:23Z
2021-07-09T02:01:10Z,42.805,6.029,13.2990,4.60006,2470.404,2021-7-09T04:02:26Z
2021-07-09T02:04:14Z,42.805,6.029,13.2991,4.60005,2470.46,2021-7-09T04:05:29Z
2021-07-09T02:07:17Z,42.805,6.029,13.2988,4.60003,2470.413,2021-7-09T04:08:32Z
2021-07-09T02:10:20Z,42.805,6.029,13.2991,4.60006,2470.38,2021-7-09T04:11:35Z
2021-07-09T02:13:23Z,42.805,6.029,13.2994,4.60008,2470.413,2021-7-09T04:14:38Z
2021-07-09T02:16:26Z,42.805,6.029,13.2991,4.60011,2470.413,2021-7-09T04:17:42Z
2021-07-09T02:19:29Z,42.805,6.029,13.2990,4.60003,2470.413,2021-7-09T04:20:45Z
2021-07-09T02:22:32Z,42.805,6.029,13.2992,4.60009,2470.38,2021-7-09T04:23:48Z
2021-07-09T02:25:35Z,42.805,6.029,13.2993,4.60003,2470.427,2021-7-09T04:26:51Z
2021-07-09T02:28:39Z,42.805,6.029,13.2990,4.60003,2470.413,2021-7-09T04:29:54Z
2021-07-09T02:31:42Z,42.805,6.029,13.2992,4.60006,2470.413,2021-7-09T04:32:57Z
2021-07-09T02:34:45Z,42.805,6.029,13.2993,4.60004,2470.39,2021-7-09T04:36:00Z
2021-07-09T02:37:48Z,42.805,6.029,13.2990,4.60003,2470.366,2021-7-09T04:39:03Z
2021-07-09T02:40:51Z,42.805,6.029,13.2990,4.60003,2470.399,2021-7-09T04:42:07Z
2021-07-09T02:43:54Z,42.805,6.029,13.2990,4.60004,2470.39,2021-7-09T04:45:10Z
2021-07-09T02:46:57Z,42.805,6.029,13.2991,4.60006,2470.413,2021-7-09T04:48:13Z
2021-07-09T02:50:00Z,42.805,6.029,13.2991,4.60005,2470.413,2021-7-09T04:51:16Z
2021-07-09T02:53:04Z,42.805,6.029,13.2990,4.60007,2470.404,2021-7-09T04:54:19Z
2021-07-09T02:56:07Z,42.805,6.029,13.2988,4.60008,2470.38,2021-7-09T04:57:22Z
2021-07-09T02:59:10Z,42.805,6.029,13.2989,4.60006,2470.404,2021-7-09T05:00:25Z
2021-07-09T03:02:13Z,42.805,6.029,13.2991,4.60004,2470.413,2021-7-09T05:03:28Z
2021-07-09T03:05:16Z,42.805,6.029,13.2989,4.60004,2470.366,2021-7-09T05:06:31Z
2021-07-09T03:08:19Z,42.805,6.029,13.2992,4.60010,2470.404,2021-7-09T05:09:35Z
2021-07-09T03:11:22Z,42.805,6.029,13.2990,4.60006,2470.404,2021-7-09T05:12:38Z
2021-07-09T03:14:25Z,42.805,6.029,13.2992,4.60007,2470.366,2021-7-09T05:15:41Z
2021-07-09T03:17:28Z,42.805,6.029,13.2988,4.60007,2470.39,2021-7-09T05:18:44Z
2021-07-09T03:20:32Z,42.805,6.029,13.2990,4.60003,2470.427,2021-7-09T05:21:47Z
2021-07-09T03:23:35Z,42.805,6.029,13.2993,4.60007,2470.399,2021-7-09T05:24:50Z
2021-07-09T03:26:38Z,42.805,6.029,13.2994,4.60006,2470.404,2021-7-09T05:27:53Z
2021-07-09T03:29:41Z,42.805,6.029,13.2992,4.60007,2470.39,2021-7-09T05:30:56Z
2021-07-09T03:32:44Z,42.805,6.029,13.2989,4.60008,2470.427,2021-7-09T05:34:00Z
2021-07-09T03:35:47Z,42.805,6.029,13.2989,4.60004,2470.413,2021-7-09T05:37:03Z
2021-07-09T03:38:50Z,42.805,6.029,13.2988,4.60010,2470.427,2021-7-09T05:40:06Z
2021-07-09T03:41:53Z,42.805,6.029,13.2989,4.60008,2470.437,2021-7-09T05:43:09Z
2021-07-09T03:44:57Z,42.805,6.029,13.2986,4.60011,2470.413,2021-7-09T05:46:12Z
2021-07-09T03:48:00Z,42.805,6.029,13.2995,4.60005,2470.427,2021-7-09T05:49:15Z
2021-07-09T03:51:03Z,42.805,6.029,13.2991,4.60006,2470.413,2021-7-09T05:52:18Z
2021-07-09T03:54:06Z,42.805,6.029,13.2992,4.60005,2470.45,2021-7-09T05:55:21Z
2021-07-09T03:57:09Z,42.805,6.029,13.2990,4.60004,2470.413,2021-7-09T05:58:24Z
2021-07-09T04:00:12Z,42.805,6.029,13.2990,4.60007,2470.46,2021-7-09T06:01:28Z
2021-07-09T04:03:15Z,42.805,6.029,13.2992,4.60006,2470.413,2021-7-09T06:04:31Z
2021-07-09T04:06:18Z,42.805,6.029,13.2988,4.60013,2470.413,2021-7-09T06:07:34Z
2021-07-09T04:09:21Z,42.805,6.029,13.2990,4.60009,2470.45,2021-7-09T06:10:37Z
2021-07-09T04:12:25Z,42.805,6.029,13.2992,4.60007,2470.437,2021-7-09T06:13:40Z
2021-07-09T04:15:28Z,42.805,6.029,13.2993,4.60004,2470.399,2021-7-09T06:16:43Z
2021-07-09T04:18:31Z,42.805,6.029,13.2988,4.60005,2470.437,2021-7-09T06:19:46Z
2021-07-09T04:21:34Z,42.805,6.029,13.2993,4.60005,2470.474,2021-7-09T06:22:49Z
2021-07-09T04:24:37Z,42.805,6.029,13.2990,4.60004,2470.437,2021-7-09T06:25:53Z
2021-07-09T04:27:40Z,42.805,6.029,13.2991,4.60008,2470.437,2021-7-09T06:28:56Z
2021-07-09T04:30:43Z,42.805,6.029,13.2993,4.60007,2470.46,2021-7-09T06:31:59Z
2021-07-09T04:33:46Z,42.805,6.029,13.2994,4.60012,2470.437,2021-7-09T06:35:02Z
2021-07-09T04:36:50Z,42.805,6.029,13.2991,4.60006,2470.46,2021-7-09T06:38:05Z
2021-07-09T04:39:53Z,42.805,6.029,13.2991,4.60019,2470.413,2021-7-09T06:41:08Z
2021-07-09T04:42:56Z,42.805,6.029,13.2990,4.60009,2470.45,2021-7-09T06:44:11Z
2021-07-09T04:45:59Z,42.805,6.029,13.2992,4.60006,2470.46,2021-7-09T06:47:14Z
2021-07-09T04:49:02Z,42.805,6.029,13.2989,4.60006,2470.483,2021-7-09T06:50:18Z
2021-07-09T04:52:05Z,42.805,6.029,13.2987,4.60006,2470.46,2021-7-09T06:53:21Z
2021-07-09T04:55:08Z,42.805,6.029,13.2992,4.60006,2470.423,2021-7-09T06:56:24Z
2021-07-09T04:58:11Z,42.805,6.029,13.2992,4.60009,2470.474,2021-7-09T06:59:27Z
2021-07-09T05:01:14Z,42.805,6.029,13.2992,4.60006,2470.46,2021-7-09T07:02:30Z
2021-07-09T05:04:18Z,42.805,6.029,13.2993,4.60007,2470.46,2021-7-09T07:05:33Z
2021-07-09T05:07:21Z,42.805,6.029,13.2988,4.60006,2470.46,2021-7-09T07:08:36Z
2021-07-09T05:10:24Z,42.805,6.029,13.2991,4.60003,2470.483,2021-7-09T07:11:39Z
2021-07-09T05:13:27Z,42.805,6.029,13.2991,4.60003,2470.483,2021-7-09T07:14:42Z
2021-07-09T05:16:30Z,42.805,6.029,13.2990,4.60004,2470.437,2021-7-09T07:17:46Z
2021-07-09T05:19:33Z,42.805,6.029,13.2989,4.60007,2470.507,2021-7-09T07:20:49Z
2021-07-09T05:22:36Z,42.805,6.029,13.2990,4.60008,2470.46,2021-7-09T07:23:52Z
2021-07-09T05:25:39Z,42.805,6.029,13.2995,4.60005,2470.474,2021-7-09T07:26:55Z
2021-07-09T05:28:43Z,42.805,6.029,13.2991,4.60010,2470.483,2021-7-09T07:29:58Z
2021-07-09T05:31:46Z,42.805,6.029,13.2991,4.60008,2470.483,2021-7-09T07:33:01Z
2021-07-09T05:34:49Z,42.805,6.029,13.2990,4.60005,2470.46,2021-7-09T07:36:04Z
2021-07-09T05:37:52Z,42.805,6.029,13.2990,4.60004,2470.45,2021-7-09T07:39:07Z
2021-07-09T05:40:55Z,42.805,6.029,13.2990,4.60007,2470.46,2021-7-09T07:42:10Z
2021-07-09T05:43:58Z,42.805,6.029,13.2993,4.60009,2470.483,2021-7-09T07:45:14Z
2021-07-09T05:47:01Z,42.805,6.029,13.2991,4.60009,2470.474,2021-7-09T07:48:17Z
2021-07-09T05:50:04Z,42.805,6.029,13.2992,4.60006,2470.46,2021-7-09T07:51:20Z
2021-07-09T05:53:08Z,42.805,6.029,13.2991,4.60009,2470.497,2021-7-09T07:54:23Z
2021-07-09T05:56:11Z,42.805,6.029,13.2991,4.60005,2470.483,2021-7-09T07:57:26Z
2021-07-09T05:59:14Z,42.805,6.029,13.2990,4.60006,2470.483,2021-7-09T08:00:29Z
2021-07-09T06:02:17Z,42.805,6.029,13.2991,4.60015,2470.483,2021-7-09T08:03:32Z
2021-07-09T06:05:20Z,42.805,6.029,13.2990,4.60011,2470.474,2021-7-09T08:06:35Z
2021-07-09T06:08:23Z,42.805,6.029,13.2994,4.60009,2470.46,2021-7-09T08:09:39Z
2021-07-09T06:11:26Z,42.805,6.029,13.2991,4.60011,2470.46,2021-7-09T08:12:42Z
2021-07-09T06:14:29Z,42.805,6.029,13.2989,4.60007,2470.483,2021-7-09T08:15:45Z
2021-07-09T06:17:32Z,42.805,6.029,13.2992,4.60007,2470.46,2021-7-09T08:18:48Z
2021-07-09T06:20:36Z,42.805,6.029,13.2989,4.60007,2470.483,2021-7-09T08:21:51Z
2021-07-09T06:23:39Z,42.805,6.029,13.2991,4.60010,2470.437,2021-7-09T08:24:54Z
2021-07-09T06:26:42Z,42.805,6.029,13.2989,4.60009,2470.437,2021-7-09T08:27:57Z
2021-07-09T06:29:45Z,42.805,6.029,13.2990,4.60008,2470.46,2021-7-09T08:31:00Z
2021-07-09T06:32:48Z,42.805,6.029,13.2993,4.60007,2470.45,2021-7-09T08:34:03Z
2021-07-09T06:35:51Z,42.805,6.029,13.2993,4.60016,2470.497,2021-7-09T08:37:07Z
2021-07-09T06:38:54Z,42.805,6.029,13.2991,4.60013,2470.46,2021-7-09T08:40:10Z
2021-07-09T06:41:57Z,42.805,6.029,13.2991,4.60015,2470.483,2021-7-09T08:43:13Z
2021-07-09T06:45:01Z,42.805,6.029,13.2993,4.60014,2470.483,2021-7-09T08:46:16Z
2021-07-09T06:48:04Z,42.805,6.029,13.2991,4.60009,2470.46,2021-7-09T08:49:19Z
2021-07-09T06:51:07Z,42.805,6.029,13.2993,4.60019,2470.47,2021-7-09T08:52:22Z
2021-07-09T06:54:10Z,42.805,6.029,13.2990,4.60006,2470.497,2021-7-09T08:55:25Z
2021-07-09T06:57:13Z,42.805,6.029,13.2990,4.60008,2470.483,2021-7-09T08:58:28Z
2021-07-09T07:00:16Z,42.805,6.029,13.2993,4.60007,2470.483,2021-7-09T09:01:32Z
2021-07-09T07:03:19Z,42.805,6.029,13.2993,4.60007,2470.483,2021-7-09T09:04:35Z
2021-07-09T07:06:22Z,42.805,6.029,13.2991,4.60014,2470.46,2021-7-09T09:07:38Z
2021-07-09T07:09:25Z,42.805,6.029,13.2991,4.60006,2470.483,2021-7-09T09:10:41Z
2021-07-09T07:12:29Z,42.805,6.029,13.2993,4.60015,2470.483,2021-7-09T09:13:44Z
2021-07-09T07:15:32Z,42.805,6.029,13.2990,4.60014,2470.474,2021-7-09T09:16:47Z
2021-07-09T07:18:35Z,42.805,6.029,13.2995,4.60014,2470.46,2021-7-09T09:19:50Z
2021-07-09T07:21:38Z,42.805,6.029,13.2990,4.60011,2470.497,2021-7-09T09:22:53Z
2021-07-09T07:24:41Z,42.805,6.029,13.2991,4.60008,2470.483,2021-7-09T09:25:57Z
2021-07-09T07:27:44Z,42.805,6.029,13.2993,4.60004,2470.483,2021-7-09T09:29:00Z
2021-07-09T07:30:47Z,42.805,6.029,13.2993,4.60009,2470.497,2021-7-09T09:32:03Z
2021-07-09T07:33:50Z,42.805,6.029,13.2991,4.60011,2470.483,2021-7-09T09:35:06Z
2021-07-09T07:36:54Z,42.805,6.029,13.2993,4.60016,2470.474,2021-7-09T09:38:09Z
2021-07-09T07:39:57Z,42.805,6.029,13.2989,4.60028,2470.474,2021-7-09T09:41:12Z
2021-07-09T07:43:00Z,42.805,6.029,13.2992,4.60011,2470.474,2021-7-09T09:44:15Z
2021-07-09T07:46:03Z,42.805,6.029,13.2991,4.60019,2470.474,2021-7-09T09:47:18Z
2021-07-09T07:49:06Z,42.805,6.029,13.2994,4.60019,2470.427,2021-7-09T09:50:21Z
2021-07-09T07:52:09Z,42.805,6.029,13.2990,4.60016,2470.474,2021-7-09T09:53:25Z
2021-07-09T07:55:12Z,42.805,6.029,13.2992,4.60007,2470.474,2021-7-09T09:56:28Z
2021-07-09T07:58:15Z,42.805,6.029,13.2992,4.60005,2470.437,2021-7-09T09:59:31Z
2021-07-09T08:01:18Z,42.805,6.029,13.2992,4.60007,2470.437,2021-7-09T10:02:34Z
2021-07-09T08:04:22Z,42.805,6.029,13.2993,4.60008,2470.474,2021-7-09T10:05:37Z
2021-07-09T08:07:25Z,42.805,6.029,13.2991,4.60009,2470.427,2021-7-09T10:08:40Z
2021-07-09T08:10:28Z,42.805,6.029,13.2993,4.60010,2470.46,2021-7-09T10:11:43Z
2021-07-09T08:13:31Z,42.805,6.029,13.2990,4.60007,2470.413,2021-7-09T10:14:46Z
2021-07-09T08:16:34Z,42.805,6.029,13.2993,4.60013,2470.39,2021-7-09T10:17:50Z
2021-07-09T08:19:37Z,42.805,6.029,13.2989,4.60009,2470.46,2021-7-09T10:20:53Z
2021-07-09T08:22:40Z,42.805,6.029,13.2990,4.60007,2470.427,2021-7-09T10:23:56Z
2021-07-09T08:25:43Z,42.805,6.029,13.2991,4.60009,2470.437,2021-7-09T10:26:59Z
2021-07-09T08:28:47Z,42.805,6.029,13.2992,4.60014,2470.413,2021-7-09T10:30:02Z
2021-07-09T08:31:50Z,42.805,6.029,13.2991,4.60022,2470.413,2021-7-09T10:33:05Z
2021-07-09T08:34:53Z,42.805,6.029,13.2991,4.60016,2470.413,2021-7-09T10:36:08Z
2021-07-09T08:37:56Z,42.805,6.029,13.2991,4.60009,2470.404,2021-7-09T10:39:11Z
2021-07-09T08:40:59Z,42.805,6.029,13.2991,4.60009,2470.413,2021-7-09T10:42:15Z
2021-07-09T08:44:02Z,42.805,6.029,13.2988,4.60006,2470.427,2021-7-09T10:45:18Z
2021-07-09T08:47:05Z,42.805,6.029,13.2991,4.60005,2470.366,2021-7-09T10:48:21Z
2021-07-09T08:50:08Z,42.805,6.029,13.2992,4.60009,2470.404,2021-7-09T10:51:24Z
2021-07-09T08:53:12Z,42.805,6.029,13.2990,4.60007,2470.427,2021-7-09T10:54:27Z
2021-07-09T08:56:15Z,42.805,6.029,13.2989,4.60021,2470.39,2021-7-09T10:57:30Z
2021-07-09T08:59:18Z,42.805,6.029,13.2989,4.60015,2470.39,2021-7-09T11:00:33Z
2021-07-09T09:02:21Z,42.805,6.029,13.2991,4.60011,2470.413,2021-7-09T11:03:36Z
2021-07-09T09:05:24Z,42.805,6.029,13.2990,4.60011,2470.413,2021-7-09T11:06:39Z
2021-07-09T09:08:27Z,42.805,6.029,13.2990,4.60014,2470.366,2021-7-09T11:09:43Z
2021-07-09T09:11:30Z,42.805,6.029,13.2991,4.60016,2470.366,2021-7-09T11:12:46Z
2021-07-09T09:14:33Z,42.805,6.029,13.2993,4.60010,2470.366,2021-7-09T11:15:49Z
2021-07-09T09:17:37Z,42.805,6.029,13.2987,4.60008,2470.413,2021-7-09T11:18:52Z
2021-07-09T09:20:40Z,42.805,6.029,13.2992,4.60009,2470.38,2021-7-09T11:21:55Z
2021-07-09T09:23:43Z,42.805,6.029,13.2988,4.60009,2470.39,2021-7-09T11:24:58Z
2021-07-09T09:26:46Z,42.805,6.029,13.2991,4.60007,2470.437,2021-7-09T11:28:01Z
2021-07-09T09:29:49Z,42.805,6.029,13.2992,4.60014,2470.39,2021-7-09T11:31:04Z
2021-07-09T09:32:52Z,42.805,6.029,13.2991,4.60007,2470.366,2021-7-09T11:34:08Z
2021-07-09T09:35:55Z,42.805,6.029,13.2993,4.60006,2470.366,2021-7-09T11:37:11Z
2021-07-09T09:38:58Z,42.805,6.029,13.2993,4.60006,2470.366,2021-7-09T11:40:14Z
2021-07-09T09:42:02Z,42.805,6.029,13.2992,4.60009,2470.357,2021-7-09T11:43:17Z
2021-07-09T09:45:05Z,42.805,6.029,13.2992,4.60010,2470.39,2021-7-09T11:46:20Z
2021-07-09T09:48:08Z,42.805,6.029,13.2990,4.60008,2470.39,2021-7-09T11:49:23Z
2021-07-09T09:51:11Z,42.805,6.029,13.2994,4.60013,2470.39,2021-7-09T11:52:26Z
2021-07-09T09:54:14Z,42.805,6.029,13.2993,4.60016,2470.404,2021-7-09T11:55:29Z
2021-07-09T09:57:17Z,42.805,6.029,13.2993,4.60009,2470.38,2021-7-09T11:58:33Z
2021-07-09T10:00:20Z,42.805,6.029,13.2991,4.60008,2470.366,2021-7-09T12:01:36Z
2021-07-09T10:03:23Z,42.805,6.029,13.2991,4.60007,2470.38,2021-7-09T12:04:39Z
2021-07-09T10:06:26Z,42.805,6.029,13.2991,4.60014,2470.404,2021-7-09T12:07:42Z
2021-07-09T10:09:30Z,42.805,6.029,13.2989,4.60009,2470.366,2021-7-09T12:10:45Z
2021-07-09T10:12:33Z,42.805,6.029,13.2991,4.60009,2470.366,2021-7-09T12:13:48Z
2021-07-09T10:15:36Z,42.805,6.029,13.2993,4.60007,2470.38,2021-7-09T12:16:51Z
2021-07-09T10:18:39Z,42.805,6.029,13.2994,4.60007,2470.366,2021-7-09T12:19:54Z
2021-07-09T10:21:42Z,42.805,6.029,13.2996,4.60009,2470.366,2021-7-09T12:22:58Z
2021-07-09T10:24:45Z,42.805,6.029,13.2991,4.60007,2470.343,2021-7-09T12:26:01Z
2021-07-09T10:27:48Z,42.805,6.029,13.2989,4.60013,2470.404,2021-7-09T12:29:04Z
2021-07-09T10:30:51Z,42.805,6.029,13.2991,4.60009,2470.334,2021-7-09T12:32:07Z
2021-07-09T10:33:55Z,42.805,6.029,13.2995,4.60006,2470.297,2021-7-09T12:35:10Z
2021-07-09T10:36:58Z,42.805,6.029,13.2993,4.60009,2470.343,2021-7-09T12:38:13Z
2021-07-09T10:40:01Z,42.805,6.029,13.2986,4.60005,2470.32,2021-7-09T12:41:16Z
2021-07-09T10:43:04Z,42.805,6.029,13.2991,4.60005,2470.343,2021-7-09T12:44:19Z
2021-07-09T10:46:07Z,42.805,6.029,13.2989,4.60005,2470.343,2021-7-09T12:47:23Z
2021-07-09T10:49:10Z,42.805,6.029,13.2991,4.60004,2470.343,2021-7-09T12:50:26Z
2021-07-09T10:52:13Z,42.805,6.029,13.2990,4.60010,2470.32,2021-7-09T12:53:29Z
2021-07-09T10:55:16Z,42.805,6.029,13.2992,4.60006,2470.334,2021-7-09T12:56:32Z
2021-07-09T10:58:20Z,42.805,6.029,13.2990,4.60011,2470.32,2021-7-09T12:59:35Z
2021-07-09T11:01:23Z,42.805,6.029,13.2989,4.60009,2470.343,2021-7-09T13:02:38Z
2021-07-09T11:04:26Z,42.805,6.029,13.2996,4.60006,2470.343,2021-7-09T13:05:41Z
2021-07-09T11:07:29Z,42.805,6.029,13.2994,4.60004,2470.343,2021-7-09T13:08:44Z
2021-07-09T11:10:32Z,42.805,6.029,13.2991,4.60005,2470.32,2021-7-09T13:11:48Z
2021-07-09T11:13:35Z,42.805,6.029,13.2993,4.60006,2470.38,2021-7-09T13:14:51Z
2021-07-09T11:16:38Z,42.805,6.029,13.2992,4.60011,2470.357,2021-7-09T13:17:54Z
2021-07-09T11:19:41Z,42.805,6.029,13.2993,4.60009,2470.297,2021-7-09T13:20:57Z
2021-07-09T11:22:45Z,42.805,6.029,13.2992,4.60006,2470.334,2021-7-09T13:24:00Z
2021-07-09T11:25:48Z,42.805,6.029,13.2991,4.60005,2470.32,2021-7-09T13:27:03Z
2021-07-09T11:28:51Z,42.805,6.029,13.2992,4.60005,2470.343,2021-7-09T13:30:06Z
2021-07-09T11:31:54Z,42.805,6.029,13.2993,4.60007,2470.297,2021-7-09T13:33:09Z
2021-07-09T11:34:57Z,42.805,6.029,13.2994,4.60007,2470.32,2021-7-09T13:36:13Z
2021-07-09T11:38:00Z,42.805,6.029,13.2993,4.60010,2470.32,2021-7-09T13:39:16Z
2021-07-09T11:41:03Z,42.805,6.029,13.2993,4.60009,2470.32,2021-7-09T13:42:19Z
2021-07-09T11:44:06Z,42.805,6.029,13.2989,4.60008,2470.32,2021-7-09T13:45:22Z
2021-07-09T11:47:10Z,42.805,6.029,13.2991,4.60005,2470.32,2021-7-09T13:48:25Z
2021-07-09T11:50:13Z,42.805,6.029,13.2988,4.60004,2470.31,2021-7-09T13:51:28Z
2021-07-09T11:53:16Z,42.805,6.029,13.2993,4.60004,2470.31,2021-7-09T13:54:31Z
2021-07-09T11:56:19Z,42.805,6.029,13.2993,4.60004,2470.297,2021-7-09T13:57:34Z
2021-07-09T11:59:22Z,42.805,6.029,13.2991,4.60004,2470.297,2021-7-09T14:00:38Z
2021-07-09T12:02:25Z,42.805,6.029,13.2993,4.60003,2470.273,2021-7-09T14:03:41Z
2021-07-09T12:05:28Z,42.805,6.029,13.2991,4.60005,2470.334,2021-7-09T14:06:44Z
2021-07-09T12:08:31Z,42.805,6.029,13.2990,4.60003,2470.297,2021-7-09T14:09:47Z
2021-07-09T12:11:34Z,42.805,6.029,13.2990,4.60004,2470.283,2021-7-09T14:12:50Z
2021-07-09T12:14:38Z,42.805,6.029,13.2993,4.60003,2470.32,2021-7-09T14:15:53Z
2021-07-09T12:17:41Z,42.805,6.029,13.2987,4.60003,2470.297,2021-7-09T14:18:56Z
2021-07-09T12:20:44Z,42.805,6.029,13.2987,4.60003,2470.297,2021-7-09T14:21:59Z
2021-07-09T12:23:47Z,42.805,6.029,13.2993,4.60003,2470.334,2021-7-09T14:25:02Z
2021-07-09T12:26:50Z,42.805,6.029,13.2991,4.60003,2470.297,2021-7-09T14:28:06Z
2021-07-09T12:29:53Z,42.805,6.029,13.2993,4.60003,2470.31,2021-7-09T14:31:09Z
2021-07-09T12:32:56Z,42.805,6.029,13.2992,4.60003,2470.297,2021-7-09T14:34:12Z
2021-07-09T12:35:59Z,42.805,6.029,13.2990,4.60003,2470.287,2021-7-09T14:37:15Z
2021-07-09T12:39:03Z,42.805,6.029,13.2989,4.60011,2470.273,2021-7-09T14:40:18Z
2021-07-09T12:42:06Z,42.805,6.029,13.2991,4.60003,2470.273,2021-7-09T14:43:21Z
2021-07-09T12:45:09Z,42.805,6.029,13.2991,4.60002,2470.31,2021-7-09T14:46:24Z
2021-07-09T12:48:12Z,42.805,6.029,13.2991,4.60003,2470.273,2021-7-09T14:49:27Z
2021-07-09T12:51:15Z,42.805,6.029,13.2992,4.60005,2470.273,2021-7-09T14:52:31Z
2021-07-09T12:54:18Z,42.805,6.029,13.2989,4.60002,2470.273,2021-7-09T14:55:34Z
2021-07-09T12:57:21Z,42.805,6.029,13.2991,4.60002,2470.297,2021-7-09T14:58:37Z
2021-07-09T13:00:24Z,42.805,6.029,13.2988,4.60005,2470.31,2021-7-09T15:01:40Z
2021-07-09T13:03:28Z,42.805,6.029,13.2993,4.60001,2470.297,2021-7-09T15:04:43Z
2021-07-09T13:06:31Z,42.805,6.029,13.2990,4.60003,2470.287,2021-7-09T15:07:46Z
2021-07-09T13:09:34Z,42.805,6.029,13.2993,4.60003,2470.31,2021-7-09T15:10:49Z
2021-07-09T13:12:37Z,42.805,6.029,13.2991,4.60002,2470.26,2021-7-09T15:13:52Z
2021-07-09T13:15:40Z,42.805,6.029,13.2993,4.60002,2470.31,2021-7-09T15:16:56Z
2021-07-09T13:18:43Z,42.805,6.029,13.2988,4.60002,2470.297,2021-7-09T15:19:59Z
2021-07-09T13:21:46Z,42.805,6.029,13.2989,4.60008,2470.273,2021-7-09T15:23:02Z
2021-07-09T13:24:49Z,42.805,6.029,13.2990,4.60002,2470.273,2021-7-09T15:26:05Z
2021-07-09T13:27:53Z,42.805,6.029,13.2990,4.60002,2470.264,2021-7-09T15:29:08Z
2021-07-09T13:30:56Z,42.805,6.029,13.2985,4.60001,2470.297,2021-7-09T15:32:11Z
2021-07-09T13:33:59Z,42.805,6.029,13.2993,4.60002,2470.31,2021-7-09T15:35:14Z
2021-07-09T13:37:02Z,42.805,6.029,13.2991,4.60002,2470.297,2021-7-09T15:38:17Z
2021-07-09T13:40:05Z,42.805,6.029,13.2991,4.60003,2470.287,2021-7-09T15:41:21Z
2021-07-09T13:43:08Z,42.805,6.029,13.2989,4.60002,2470.273,2021-7-09T15:44:24Z
2021-07-09T13:46:11Z,42.805,6.029,13.2994,4.60001,2470.287,2021-7-09T15:47:27Z
2021-07-09T13:49:14Z,42.805,6.029,13.2992,4.60002,2470.264,2021-7-09T15:50:30Z
2021-07-09T13:52:18Z,42.805,6.029,13.2993,4.60002,2470.273,2021-7-09T15:53:33Z
2021-07-09T13:55:21Z,42.805,6.029,13.2992,4.60001,2470.297,2021-7-09T15:56:36Z
2021-07-09T13:58:24Z,42.805,6.029,13.2987,4.60001,2470.287,2021-7-09T15:59:39Z
2021-07-09T14:01:27Z,42.805,6.029,13.2991,4.60001,2470.297,2021-7-09T16:02:42Z
2021-07-09T14:04:30Z,42.805,6.029,13.2986,4.59999,2470.287,2021-7-09T16:05:46Z
2021-07-09T14:07:33Z,42.805,6.029,13.2994,4.60003,2470.334,2021-7-09T16:08:49Z
2021-07-09T14:10:36Z,42.805,6.029,13.2994,4.60002,2470.32,2021-7-09T16:11:52Z
2021-07-09T14:13:39Z,42.805,6.029,13.2995,4.60003,2470.31,2021-7-09T16:14:55Z
2021-07-09T14:16:43Z,42.805,6.029,13.2992,4.59999,2470.297,2021-7-09T16:17:58Z
2021-07-09T14:19:46Z,42.805,6.029,13.2993,4.60001,2470.32,2021-7-09T16:21:01Z
2021-07-09T14:22:49Z,42.805,6.029,13.2990,4.60001,2470.32,2021-7-09T16:24:04Z
2021-07-09T14:25:52Z,42.805,6.029,13.2993,4.60001,2470.32,2021-7-09T16:27:07Z
2021-07-09T14:28:55Z,42.805,6.029,13.2990,4.60001,2470.334,2021-7-09T16:30:11Z
2021-07-09T14:31:58Z,42.805,6.029,13.2994,4.60002,2470.297,2021-7-09T16:33:14Z
2021-07-09T14:35:01Z,42.805,6.029,13.2991,4.60007,2470.287,2021-7-09T16:36:17Z
2021-07-09T14:38:04Z,42.805,6.029,13.2992,4.60006,2470.334,2021-7-09T16:39:20Z
2021-07-09T14:41:08Z,42.805,6.029,13.2986,4.60003,2470.297,2021-7-09T16:42:23Z
2021-07-09T14:44:11Z,42.805,6.029,13.2990,4.60004,2470.334,2021-7-09T16:45:26Z
2021-07-09T14:47:14Z,42.805,6.029,13.2990,4.60003,2470.32,2021-7-09T16:48:29Z
2021-07-09T14:50:17Z,42.805,6.029,13.2993,4.60003,2470.297,2021-7-09T16:51:32Z
2021-07-09T14:53:20Z,42.805,6.029,13.2987,4.60003,2470.273,2021-7-09T16:54:36Z
2021-07-09T14:56:23Z,42.805,6.029,13.2991,4.60002,2470.297,2021-7-09T16:57:39Z
2021-07-09T14:59:26Z,42.805,6.029,13.2988,4.60003,2470.32,2021-7-09T17:00:42Z
2021-07-09T15:02:29Z,42.805,6.029,13.2991,4.60003,2470.334,2021-7-09T17:03:45Z
2021-07-09T15:05:32Z,42.805,6.029,13.2990,4.60003,2470.357,2021-7-09T17:06:48Z
2021-07-09T15:08:36Z,42.805,6.029,13.2993,4.60004,2470.334,2021-7-09T17:09:51Z
2021-07-09T15:11:39Z,42.805,6.029,13.2991,4.60003,2470.334,2021-7-09T17:12:54Z